Newport Airport, OR

2:27 PM PDT on April 28, 2017 (GMT -0700)
Newport Municipal

Weather History for KONP - January, 2014

Change the Weather History Date:

Thursday, January 23, 2014

  Actual Average Record
Temperature  
Mean Temperature 45 °F -  
Max Temperature 55 °F 48 °F 59 °F (2003)
Min Temperature 35 °F 40 °F 33 °F (2008)
Degree Days  
Heating Degree Days 20    
Moisture  
Dew Point 34 °F    
Average Humidity 62    
Maximum Humidity 100    
Minimum Humidity 44    
Precipitation  
Precipitation 0.00 in - - ()
Sea Level Pressure  
Sea Level Pressure 30.22 in    
Wind  
Wind Speed 16 mph (East)    
Max Wind Speed 28 mph    
Max Gust Speed 38 mph    
Visibility 10 miles    
Events      
Averages and records for this station are not official NWS values.
T = Trace of Precipitation, MM = Missing Value Source: NWS Daily Summary

Daily Weather History Graph

Daily Weather History Graph

Search for Another Location

Airport or City:

Trip Planner

Search our weather history database for the weather conditions in past years. The results will help you decide how hot, cold, wet, or windy it might be!

Date:

Astronomy

Jan. 23, 2014 Rise Set
Actual Time 7:43 AM PST 5:12 PM PST
Civil Twilight 7:12 AM PST 5:44 PM PST
Nautical Twilight 6:36 AM PST 6:20 PM PST
Astronomical Twilight 6:02 AM PST 6:54 PM PST
Moon 12:07 AM PST (1/23) 11:03 AM PST (1/23)
Length of Visible Light 10h 32m
Length of Day
9h 29m
Waning Gibbous, 54% of the Moon is Illuminated
Jan 23
Waning Gibbous
Jan 23
Last Quarter
Jan 30
New
Feb 6
First Quarter
Feb 14
Full

Hourly Weather History & Observations

Time (PST) Temp. Windchill Dew Point Humidity Pressure Visibility Wind Dir Wind Speed Gust Speed Precip Events Conditions
12:15 AM 42.8 °F 35.8 °F 41.0 °F 93% 30.29 in 10.0 mi East 13.8 mph 17.3 mph N/A   Clear
12:35 AM 42.8 °F 36.2 °F 39.2 °F 87% 30.28 in 10.0 mi ENE 12.7 mph 20.7 mph N/A   Clear
12:55 AM 42.8 °F 36.2 °F 39.2 °F 87% 30.27 in 10.0 mi East 12.7 mph 20.7 mph N/A   Clear
1:15 AM 42.8 °F 35.8 °F 39.2 °F 87% 30.27 in 10.0 mi East 13.8 mph 18.4 mph N/A   Clear
1:35 AM 42.8 °F 35.1 °F 37.4 °F 81% 30.26 in 10.0 mi East 16.1 mph - N/A   Clear
1:55 AM 42.8 °F 35.4 °F 37.4 °F 81% 30.27 in 10.0 mi East 15.0 mph - N/A   Clear
2:15 AM 42.8 °F 36.6 °F 37.4 °F 81% 30.27 in 10.0 mi East 11.5 mph - N/A   Clear
2:35 AM 42.8 °F 38.0 °F 37.4 °F 81% 30.27 in 10.0 mi ENE 8.1 mph - N/A   Clear
2:55 AM 41.0 °F 38.0 °F 35.6 °F 81% - 10.0 mi NNE 4.6 mph - N/A   Clear
3:15 AM 39.2 °F 35.9 °F 35.6 °F 87% 30.26 in 10.0 mi NE 4.6 mph - N/A   Clear
3:35 AM 37.4 °F 33.8 °F 35.6 °F 93% 30.26 in 10.0 mi NNE 4.6 mph - N/A   Clear
3:55 AM 37.4 °F 32.8 °F 35.6 °F 93% 30.26 in 10.0 mi NE 5.8 mph - N/A   Clear
4:15 AM 35.6 °F 29.9 °F 35.6 °F 100% 30.26 in 10.0 mi NE 6.9 mph - N/A   Clear
4:35 AM 37.4 °F 30.8 °F 35.6 °F 93% 30.26 in 10.0 mi NE 9.2 mph - N/A   Clear
4:55 AM 41.0 °F 34.3 °F 35.6 °F 81% 30.25 in 10.0 mi ENE 11.5 mph - N/A   Clear
5:15 AM 41.0 °F 33.5 °F 35.6 °F 81% 30.25 in 10.0 mi East 13.8 mph - N/A   Clear
5:35 AM 42.8 °F 34.0 °F 35.6 °F 76% 30.24 in 10.0 mi East 20.7 mph 26.5 mph N/A   Clear
5:55 AM 42.8 °F 34.0 °F 33.8 °F 70% 30.24 in 10.0 mi East 20.7 mph - N/A   Clear
6:15 AM 42.8 °F 36.2 °F 33.8 °F 70% 30.26 in 10.0 mi East 12.7 mph 18.4 mph N/A   Clear
6:35 AM 42.8 °F 34.8 °F 33.8 °F 70% 30.26 in 10.0 mi East 17.3 mph 21.9 mph N/A   Clear
6:55 AM 42.8 °F 34.5 °F 33.8 °F 70% - 10.0 mi East 18.4 mph - N/A   Clear
7:15 AM 42.8 °F 34.0 °F 33.8 °F 70% 30.25 in 10.0 mi East 20.7 mph 25.3 mph N/A   Clear
7:35 AM 42.8 °F 34.0 °F 33.8 °F 70% 30.26 in 10.0 mi East 20.7 mph 25.3 mph N/A   Clear
7:55 AM 42.8 °F 33.8 °F 33.8 °F 70% 30.25 in 10.0 mi East 21.9 mph - N/A   Clear
8:15 AM 42.8 °F 34.5 °F 33.8 °F 70% 30.25 in 10.0 mi East 18.4 mph 27.6 mph N/A   Clear
8:35 AM 42.8 °F 34.0 °F 32.0 °F 66% 30.26 in 10.0 mi East 20.7 mph 26.5 mph N/A   Clear
8:55 AM 44.6 °F 35.7 °F 32.0 °F 61% 30.26 in 10.0 mi East 24.2 mph 27.6 mph N/A   Clear
9:15 AM 44.6 °F 35.3 °F 33.8 °F 66% 30.26 in 10.0 mi East 26.5 mph 31.1 mph N/A   Clear
9:35 AM 44.6 °F 36.1 °F 33.8 °F 66% 30.27 in 10.0 mi East 21.9 mph - N/A   Clear
9:55 AM 46.4 °F 38.3 °F 33.8 °F 62% 30.27 in 10.0 mi East 23.0 mph 28.8 mph N/A   Clear
10:15 AM 46.4 °F 37.7 °F 33.8 °F 62% 30.27 in 10.0 mi East 26.5 mph 31.1 mph N/A   Clear
10:35 AM 48.2 °F - 33.8 °F 58% 30.26 in 10.0 mi East 27.6 mph 34.5 mph N/A   Clear
10:55 AM 50.0 °F - 33.8 °F 54% 30.26 in 10.0 mi East 25.3 mph 31.1 mph N/A   Clear
11:15 AM 51.8 °F - 33.8 °F 50% 30.26 in 10.0 mi East 21.9 mph 26.5 mph N/A   Clear
11:35 AM 51.8 °F - 33.8 °F 50% 30.26 in 10.0 mi East 15.0 mph - N/A   Clear
11:55 AM 51.8 °F - 33.8 °F 50% 30.24 in 10.0 mi East 15.0 mph 23.0 mph N/A   Clear
12:15 PM 53.6 °F - 33.8 °F 47% 30.24 in 10.0 mi East 18.4 mph 23.0 mph N/A   Clear
12:35 PM 53.6 °F - 33.8 °F 47% 30.22 in 10.0 mi East 16.1 mph 23.0 mph N/A   Clear
12:55 PM 55.4 °F - 33.8 °F 44% 30.22 in 10.0 mi East 16.1 mph 19.6 mph N/A   Clear
1:15 PM 55.4 °F - 33.8 °F 44% 30.21 in 10.0 mi East 19.6 mph 24.2 mph N/A   Clear
1:35 PM 55.4 °F - 33.8 °F 44% 30.21 in 10.0 mi East 19.6 mph 25.3 mph N/A   Clear
1:55 PM 55.4 °F - 35.6 °F 47% 30.20 in 10.0 mi East 18.4 mph 25.3 mph N/A   Clear
2:15 PM 55.4 °F - 35.6 °F 47% 30.18 in 10.0 mi East 17.3 mph 23.0 mph N/A   Clear
2:35 PM 55.4 °F - 35.6 °F 47% 30.18 in 10.0 mi East 17.3 mph 25.3 mph N/A   Clear
2:55 PM 55.4 °F - 33.8 °F 44% 30.17 in 10.0 mi East 17.3 mph 24.2 mph N/A   Clear
3:15 PM 55.4 °F - 33.8 °F 44% 30.17 in 10.0 mi East 20.7 mph 26.5 mph N/A   Clear
3:35 PM 55.4 °F - 33.8 °F 44% 30.16 in 10.0 mi East 17.3 mph 21.9 mph N/A   Clear
3:55 PM 55.4 °F - 33.8 °F 44% 30.16 in 10.0 mi East 19.6 mph 23.0 mph N/A   Clear
4:15 PM 53.6 °F - 33.8 °F 47% 30.15 in 10.0 mi East 12.7 mph 24.2 mph N/A   Clear
4:35 PM 53.6 °F - 33.8 °F 47% 30.15 in 10.0 mi East 19.6 mph 26.5 mph N/A   Clear
4:55 PM 53.6 °F - 33.8 °F 47% 30.15 in 10.0 mi East 20.7 mph 26.5 mph N/A   Clear
5:15 PM 51.8 °F - 33.8 °F 50% 30.16 in 10.0 mi East 25.3 mph 31.1 mph N/A   Clear
5:35 PM 51.8 °F - 32.0 °F 47% 30.15 in 10.0 mi East 20.7 mph 31.1 mph N/A   Clear
5:55 PM 51.8 °F - 32.0 °F 47% 30.15 in 10.0 mi East 21.9 mph 28.8 mph N/A   Clear
6:35 PM 51.8 °F - 32.0 °F 47% 30.16 in 10.0 mi East 24.2 mph 33.4 mph N/A   Clear
6:55 PM 50.0 °F - 32.0 °F 50% 30.17 in 10.0 mi East 23.0 mph 32.2 mph N/A   Clear
7:15 PM 50.0 °F - 32.0 °F 50% 30.17 in 10.0 mi East 20.7 mph 31.1 mph N/A   Clear
7:55 PM 50.0 °F - 32.0 °F 50% 30.18 in 10.0 mi East 21.9 mph 31.1 mph N/A   Clear
8:15 PM 50.0 °F - 32.0 °F 50% 30.19 in 10.0 mi East 21.9 mph 29.9 mph N/A   Clear
8:35 PM 50.0 °F - 32.0 °F 50% 30.19 in 10.0 mi East 24.2 mph 33.4 mph N/A   Clear
8:55 PM 50.0 °F - 32.0 °F 50% 30.20 in 10.0 mi East 21.9 mph 33.4 mph N/A   Clear
9:15 PM 48.2 °F - 32.0 °F 54% 30.20 in 10.0 mi East 21.9 mph 27.6 mph N/A   Clear
9:35 PM 48.2 °F - 32.0 °F 54% 30.21 in 10.0 mi East 23.0 mph 31.1 mph N/A   Clear
9:55 PM 48.2 °F - 30.2 °F 50% 30.20 in 10.0 mi East 25.3 mph 38.0 mph N/A   Clear
10:15 PM 48.2 °F - 30.2 °F 50% - 10.0 mi East 25.3 mph 35.7 mph N/A   Clear
10:35 PM 48.2 °F - 30.2 °F 50% 30.21 in 10.0 mi East 27.6 mph 35.7 mph N/A   Clear
10:55 PM 48.2 °F - 30.2 °F 50% 30.21 in 10.0 mi East 26.5 mph 33.4 mph N/A   Clear
11:15 PM 46.4 °F 38.3 °F 30.2 °F 53% 30.22 in 10.0 mi East 23.0 mph 33.4 mph N/A   Clear
11:35 PM 46.4 °F 38.3 °F 30.2 °F 53% 30.23 in 10.0 mi East 23.0 mph 29.9 mph N/A   Clear
11:55 PM 46.4 °F 38.5 °F 30.2 °F 53% 30.22 in 10.0 mi ENE 21.9 mph 31.1 mph N/A   Clear